STARLINK-1152, 45096

Orbit data source: Space-Track

STARLINK-1152, 45096 is a payload satellite owned by SpaceX/Seattle (US) in LEO that was launched on Wed, 29 Jan 2020 UTC via an FALCON 9 launch vehicle from the Air Force Eastern Test Range (AFETR). Payload-class satellites include a variety of spacecraft equipped with specific instruments for various scientific and technological missions. These include communications satellites like Starlink; space stations such as the ISS; scientific satellites like the Hubble; Earth observation satellites from companies like Planet Labs, Umbra, and HawkEye 360; GPS; miniature CubeSats for education and research; and military/defense satellites.

Loading next visibility...
Identifier
45096, 2020-006BE
Orbit
LEO
Country
Flag of USUS
Related business
Manufacturer
SpaceX/Seattle
Mission
Partially operational Commercial Communications
Bus & Motor
STARLINK, Unknown motor
Mass
260 kg wet, ~248 kg dry
Launch date (UTC)
2020-01-29 (6 years ago)
Launch vehicle
FALCON 9
Launch site
Air Force Eastern Test Range (AFETR)
Object type
Payload
Rocket body
Debris
Shape & HBR
Box + 1 Pan, 4.4 m
Radar Cross Section
13.562 m², Large (>1 m²)

Expand to show TLE details & history
Last TLE update: 1 day ago

TLE from 1 day ago
0 STARLINK-1152
1 45096U 20006BE  25259.48664224  .00040251  00000-0  18192-2 0  9996
2 45096  53.0482 295.8833 0005012  34.0907 326.0410 15.20571390310943
Epoch: 2025-09-16T11:40Z
TLE epoch observation values (Epoch: 2025-09-16T11:40:45.889Z)
Latitude
0.00004°
Longitude
125.01588°
Altitude
502.139 km
Speed
7.616 km/s
True Right ascension
19h 43m 31s
True Declination
0° 00' 00"
Sunlit
Object was in full shadow at epoch
Visualization orbit readout
Latitude
Unknown
Longitude
Unknown
Altitude
Unknown
Speed
Unknown
Apparent Right ascension
Unknown
Apparent Declination
Unknown
Sunlit
N/A
Visualization observer readout
Local Sidereal Time
06:14:07
Azimuth
Unknown
Elevation
Unknown
Doppler factor
Unknown
Orbital elements
Apogee altitude
507.839 km
Perigee altitude
500.94 km
Semi-major axis
6,882.526 km
Eccentricity
0.0005
Inclination
53.0482°
RAAN
295.8833°
Arg. of periapsis
34.0907°
True anomaly
326.0089°
Mean anomaly
326.041°
Eccentric anomaly
326.02495°
Mean motion
3.80121 °/min
Orbital period
94.71 mins
BSTAR
0.0018192
Loading maneuver chart data...
Computing Atmospheric mass density...

Documentation

Showing up to 5 results
|